Weather History for Roskilde, Denmark

Change the Weather History Date:

Saturday, February 16, 2013

  Actual Average Record
Temperature  
Mean Temperature 32 °F -  
Max Temperature 33 °F 39 °F 50 °F (1998)
Min Temperature 32 °F 28 °F 14 °F (2003)
Degree Days  
Heating Degree Days 32    
Moisture  
Dew Point 32 °F    
Average Humidity 95    
Maximum Humidity 100    
Minimum Humidity 87    
Precipitation  
Precipitation 0.00 in - - ()
Sea Level Pressure  
Sea Level Pressure 30.26 in    
Wind  
Wind Speed 4 mph ()    
Max Wind Speed 7 mph    
Max Gust Speed -    
Visibility 2.9 miles    
Events      
Averages and records for this station are not official NWS values.
T = Trace of Precipitation, MM = Missing Value Source: Averaged Metar Reports

Daily Weather History Graph

Daily Weather History Graph

Search for Another Location

Airport:

Trip Planner

Search our weather history database for the weather conditions in past years. The results will help you decide how hot, cold, wet, or windy it might be!

Date:

Astronomy

Feb. 16, 2013 Rise Set
Actual Time 7:33 AM CET 5:18 PM CET
Civil Twilight 6:54 AM CET 5:57 PM CET
Nautical Twilight 6:12 AM CET 6:40 PM CET
Astronomical Twilight 5:29 AM CET 7:22 PM CET
Moon 9:21 AM CET (2/16) 12:13 AM CET (2/16)
Length of Visible Light 11h 02m
Length of Day
9h 45m
Waxing Crescent, 37% of the Moon is Illuminated
Feb 16
Waxing Crescent
Feb 17
First Quarter
Feb 25
Full
Mar 4
Last Quarter
Mar 11
New

Hourly Weather History & Observations

Time (CET) Temp. Windchill Dew Point Humidity Pressure Visibility Wind Dir Wind Speed Gust Speed Precip Events Conditions
12:20 AM 33.8 °F 28.6 °F 32.0 °F 93% 30.18 in - East 5.8 mph - N/A   Overcast
12:50 AM 32.0 °F 27.5 °F 32.0 °F 100% 30.21 in - ESE 4.6 mph - N/A   Overcast
1:20 AM 33.8 °F 29.6 °F 32.0 °F 93% 30.21 in 3.1 mi ESE 4.6 mph - N/A   Mostly Cloudy
1:50 AM 32.0 °F 27.5 °F 32.0 °F 100% 30.21 in 3.7 mi East 4.6 mph - N/A   Overcast
2:20 AM 32.0 °F 27.5 °F 32.0 °F 100% 30.21 in - East 4.6 mph - N/A   Overcast
2:50 AM 32.0 °F 27.5 °F 32.0 °F 100% 30.18 in - East 4.6 mph - N/A   Overcast
3:20 AM 33.8 °F 29.6 °F 32.0 °F 93% 30.18 in - ESE 4.6 mph - N/A   Mostly Cloudy
3:50 AM 33.8 °F 28.6 °F 32.0 °F 93% 30.18 in - SE 5.8 mph - N/A   Overcast
4:20 AM 32.0 °F 27.5 °F 32.0 °F 100% 30.21 in 3.1 mi ESE 4.6 mph - N/A   Overcast
4:50 AM 32.0 °F 28.7 °F 32.0 °F 100% 30.21 in 4.3 mi ESE 3.5 mph - N/A   Overcast
5:20 AM 32.0 °F - 32.0 °F 100% 30.21 in 3.1 mi East 2.3 mph - N/A   Overcast
5:50 AM 32.0 °F - 30.2 °F 93% 30.21 in 3.7 mi NE 2.3 mph - N/A   Mostly Cloudy
6:20 AM 32.0 °F - 32.0 °F 100% 30.21 in - ENE 2.3 mph - N/A   Mostly Cloudy
6:50 AM 32.0 °F - 32.0 °F 100% 30.21 in 1.8 mi NE 2.3 mph - N/A   Overcast
7:20 AM 32.0 °F 28.7 °F 32.0 °F 100% 30.24 in - NE 3.5 mph - N/A   Overcast
7:50 AM 32.0 °F - 32.0 °F 100% 30.24 in - NE 2.3 mph - N/A   Overcast
8:20 AM 32.0 °F 28.7 °F 32.0 °F 100% 30.24 in - ENE 3.5 mph - N/A   Mostly Cloudy
8:50 AM 33.8 °F 29.6 °F 30.2 °F 87% 30.24 in 3.1 mi ENE 4.6 mph - N/A   Overcast
9:20 AM 33.8 °F 28.6 °F 30.2 °F 87% 30.24 in 3.7 mi East 5.8 mph - N/A   Mostly Cloudy
9:50 AM 33.8 °F 29.6 °F 32.0 °F 93% 30.24 in 3.1 mi East 4.6 mph - N/A   Overcast
10:20 AM 33.8 °F 28.6 °F 32.0 °F 93% 30.27 in 3.1 mi East 5.8 mph - N/A   Mostly Cloudy
10:50 AM 33.8 °F 28.6 °F 32.0 °F 93% 30.27 in 2.2 mi East 5.8 mph - N/A   Mostly Cloudy
11:20 AM 33.8 °F 28.6 °F 32.0 °F 93% 30.27 in 1.6 mi East 5.8 mph - N/A   Mostly Cloudy
11:50 AM 33.8 °F 27.7 °F 33.8 °F 100% 30.27 in 1.6 mi East 6.9 mph - N/A   Mostly Cloudy
12:20 PM 33.8 °F 28.6 °F 32.0 °F 93% 30.27 in - East 5.8 mph - N/A   Mostly Cloudy
12:50 PM 33.8 °F 28.6 °F 32.0 °F 93% 30.27 in 3.7 mi ESE 5.8 mph - N/A   Mostly Cloudy
1:20 PM 33.8 °F 29.6 °F 32.0 °F 93% 30.27 in 3.1 mi ESE 4.6 mph - N/A   Mostly Cloudy
1:50 PM 33.8 °F 30.8 °F 32.0 °F 93% 30.27 in 3.1 mi ESE 3.5 mph - N/A   Mostly Cloudy
2:20 PM 33.8 °F 29.6 °F 32.0 °F 93% 30.27 in 3.1 mi East 4.6 mph - N/A   Mostly Cloudy
2:50 PM 33.8 °F 30.8 °F 32.0 °F 93% 30.27 in 3.1 mi East 3.5 mph - N/A   Mostly Cloudy
3:20 PM 33.8 °F 30.8 °F 32.0 °F 93% 30.27 in 3.1 mi East 3.5 mph - N/A   Mostly Cloudy
3:50 PM 33.8 °F 30.8 °F 32.0 °F 93% 30.27 in 3.1 mi ENE 3.5 mph - N/A   Overcast
4:20 PM 33.8 °F - 32.0 °F 93% 30.30 in 3.1 mi East 2.3 mph - N/A   Mostly Cloudy
4:50 PM 33.8 °F - 32.0 °F 93% 30.30 in 4.3 mi ENE 2.3 mph - N/A   Overcast
5:20 PM 33.8 °F 30.8 °F 30.2 °F 87% 30.30 in 3.7 mi ENE 3.5 mph - N/A   Mostly Cloudy
5:50 PM 33.8 °F 30.8 °F 30.2 °F 87% 30.30 in 3.7 mi ENE 3.5 mph - N/A   Overcast
6:20 PM 33.8 °F 30.8 °F 30.2 °F 87% 30.30 in 3.7 mi ENE 3.5 mph - N/A   Mostly Cloudy
6:50 PM 32.0 °F 28.7 °F 30.2 °F 93% 30.30 in 3.1 mi East 3.5 mph - N/A   Overcast
7:20 PM 32.0 °F 28.7 °F 30.2 °F 93% 30.30 in 3.1 mi East 3.5 mph - N/A   Mostly Cloudy
7:50 PM 33.8 °F 30.8 °F 30.2 °F 87% 30.30 in 2.8 mi East 3.5 mph - N/A   Overcast
8:20 PM 32.0 °F - 32.0 °F 100% 30.30 in 2.8 mi East 2.3 mph - N/A   Mostly Cloudy
8:50 PM 33.8 °F 30.8 °F 32.0 °F 93% 30.30 in - East 3.5 mph - N/A   Mostly Cloudy
9:20 PM 33.8 °F 30.8 °F 32.0 °F 93% 30.33 in - East 3.5 mph - N/A   Mostly Cloudy
9:50 PM 33.8 °F 30.8 °F 32.0 °F 93% 30.33 in 1.7 mi East 3.5 mph - N/A   Mostly Cloudy
10:20 PM 32.0 °F 28.7 °F 32.0 °F 100% 30.33 in 1.4 mi East 3.5 mph - N/A   Mostly Cloudy
10:50 PM 32.0 °F 28.7 °F 32.0 °F 100% 30.33 in 1.7 mi ESE 3.5 mph - N/A   Mostly Cloudy
11:20 PM 32.0 °F 28.7 °F 32.0 °F 100% 30.33 in 1.2 mi East 3.5 mph - N/A   Mostly Cloudy
11:50 PM 32.0 °F 28.7 °F 32.0 °F 100% 30.33 in 0.9 mi East 3.5 mph - N/A   Mostly Cloudy